Myrtle Beach, SC

11:38 AM EST on November 20, 2017 (GMT -0500)
Myrtle Beach International

Weather History for KMYR - May, 2014

Change the Weather History Date:

Thursday, May 15, 2014

  Actual Average Record
Temperature  
Mean Temperature 74 °F -  
Max Temperature 78 °F 76 °F 91 °F (1953)
Min Temperature 71 °F 59 °F 48 °F (2002)
Cooling Degree Days 10    
Growing Degree Days 24 (Base 50)    
Moisture  
Dew Point 69 °F    
Average Humidity 87    
Maximum Humidity 94    
Minimum Humidity 78    
Precipitation  
Precipitation 0.00 in - - ()
Sea Level Pressure  
Sea Level Pressure 30.01 in    
Wind  
Wind Speed 14 mph (SSE)    
Max Wind Speed 25 mph    
Max Gust Speed 32 mph    
Visibility 8 miles    
Events Rain    
Averages and records for this station are not official NWS values.
T = Trace of Precipitation, MM = Missing Value Source: NWS Daily Summary

Daily Weather History Graph

Daily Weather History Graph

Search for Another Location

Airport or City:

Trip Planner

Search our weather history database for the weather conditions in past years. The results will help you decide how hot, cold, wet, or windy it might be!

Date:

Astronomy

May. 15, 2014 Rise Set
Actual Time 6:14 AM EDT 8:09 PM EDT
Civil Twilight 5:47 AM EDT 8:37 PM EDT
Nautical Twilight 5:14 AM EDT 9:10 PM EDT
Astronomical Twilight 4:38 AM EDT 9:46 PM EDT
Moon 9:15 PM EDT (5/15) 6:59 AM EDT (5/15)
Length of Visible Light 14h 49m
Length of Day
13h 54m
Full, 99% of the Moon is Illuminated
May 15
Full
May 21
Last Quarter
May 28
New
Jun 5
First Quarter
Jun 13
Full

Hourly Weather History & Observations

Time (EDT) Temp. Dew Point Humidity Pressure Visibility Wind Dir Wind Speed Gust Speed Precip Events Conditions
12:15 AM 73.4 °F 66.2 °F 78% 30.11 in 10.0 mi SE 11.5 mph - N/A   Clear
12:35 AM 73.4 °F 66.2 °F 78% 30.11 in 10.0 mi SE 15.0 mph - N/A   Clear
12:55 AM 73.4 °F 66.2 °F 78% 30.10 in 10.0 mi SE 11.5 mph - N/A   Clear
1:15 AM 73.4 °F 66.2 °F 78% 30.09 in 10.0 mi SE 11.5 mph - N/A   Clear
1:35 AM 73.4 °F 66.2 °F 78% 30.08 in 10.0 mi SE 13.8 mph - N/A   Clear
1:55 AM 73.4 °F 68.0 °F 83% 30.09 in 10.0 mi SSE 12.7 mph - N/A   Clear
2:15 AM 73.4 °F 68.0 °F 83% 30.09 in 10.0 mi SSE 15.0 mph - N/A   Mostly Cloudy
2:35 AM 73.4 °F 68.0 °F 83% 30.08 in 10.0 mi SSE 15.0 mph - N/A   Scattered Clouds
2:55 AM 73.4 °F 66.2 °F 78% 30.06 in 10.0 mi SE 13.8 mph - N/A   Partly Cloudy
3:15 AM 73.4 °F 68.0 °F 83% 30.06 in 10.0 mi SE 13.8 mph - N/A   Scattered Clouds
3:35 AM 73.4 °F 69.8 °F 88% 30.06 in 10.0 mi SE 12.7 mph - N/A   Mostly Cloudy
3:55 AM 73.4 °F 68.0 °F 83% 30.06 in 10.0 mi SE 11.5 mph - N/A   Mostly Cloudy
4:15 AM 73.4 °F 68.0 °F 83% 30.06 in 10.0 mi SE 11.5 mph - N/A   Mostly Cloudy
4:35 AM 73.4 °F 69.8 °F 88% 30.05 in 10.0 mi SE 12.7 mph - N/A   Mostly Cloudy
4:55 AM 73.4 °F 69.8 °F 88% 30.05 in 10.0 mi SE 10.4 mph - N/A   Scattered Clouds
5:15 AM 73.4 °F 69.8 °F 88% 30.04 in 10.0 mi SE 11.5 mph - N/A   Mostly Cloudy
5:35 AM 73.4 °F 69.8 °F 88% 30.04 in 10.0 mi SE 15.0 mph - N/A   Scattered Clouds
5:45 AM 73.4 °F 69.8 °F 88% 30.03 in 10.0 mi SE 9.2 mph - N/A   Mostly Cloudy
5:55 AM 73.4 °F 69.8 °F 88% 30.04 in 10.0 mi SE 13.8 mph - N/A   Mostly Cloudy
6:45 AM 75.2 °F 69.8 °F 83% 30.04 in 10.0 mi SSE 13.8 mph - N/A   Mostly Cloudy
7:45 AM 75.2 °F 69.8 °F 83% 30.04 in 10.0 mi SSE 12.7 mph - N/A   Mostly Cloudy
8:45 AM 75.2 °F 71.6 °F 89% 30.04 in 10.0 mi SSE 16.1 mph - N/A   Mostly Cloudy
9:45 AM 77.0 °F 71.6 °F 83% 30.02 in 8.0 mi SSE 16.1 mph - N/A   Mostly Cloudy
10:45 AM 78.8 °F 71.6 °F 78% 30.02 in 8.0 mi SSE 15.0 mph - N/A   Overcast
11:25 AM 71.6 °F 68.0 °F 88% 30.02 in 5.0 mi South 17.3 mph - N/A   Mostly Cloudy
11:45 AM 73.4 °F 69.8 °F 88% 30.02 in 6.0 mi South 15.0 mph - N/A   Overcast
12:45 PM 71.6 °F 68.0 °F 88% 30.03 in 2.0 mi South 17.3 mph 23.0 mph N/A Rain Rain
1:45 PM 71.6 °F 69.8 °F 94% 30.01 in 4.0 mi South 17.3 mph - N/A Rain Rain
3:45 PM 71.6 °F 69.8 °F 94% 29.95 in 3.0 mi South 13.8 mph - N/A Rain Light Rain
4:14 PM 71.6 °F 69.8 °F 94% 29.90 in 1.0 mi South 13.8 mph - N/A Rain Light Rain
4:45 PM 71.6 °F 69.8 °F 94% 29.94 in 1.0 mi SSW 16.1 mph 23.0 mph N/A Rain Rain
5:14 PM 71.6 °F 68.0 °F 88% 29.93 in 4.0 mi South 17.3 mph - N/A Rain Light Rain
5:45 PM 71.6 °F 69.8 °F 94% 29.92 in 3.0 mi SSW 15.0 mph - N/A Rain Light Rain
6:45 PM 71.6 °F 69.8 °F 94% 29.90 in 5.0 mi South 17.3 mph 28.8 mph N/A Rain Light Rain
7:45 PM 73.4 °F 69.8 °F 88% 29.89 in 7.0 mi South 19.6 mph 28.8 mph N/A   Overcast
8:45 PM 71.6 °F 68.0 °F 88% 29.89 in 7.0 mi South 23.0 mph 32.2 mph N/A   Overcast
9:45 PM 71.6 °F 69.8 °F 94% 29.90 in 7.0 mi South 25.3 mph - N/A   Overcast
10:55 PM 73.4 °F 69.8 °F 88% 29.90 in 9.0 mi SSE 18.4 mph 27.6 mph N/A   Overcast
11:15 PM 73.4 °F 69.8 °F 88% 29.91 in 9.0 mi SSE 19.6 mph 25.3 mph N/A   Overcast
11:35 PM 71.6 °F 69.8 °F 94% 29.90 in 6.0 mi South 15.0 mph 19.6 mph N/A   Overcast
11:55 PM 71.6 °F 69.8 °F 94% 29.89 in 5.0 mi South 10.4 mph 19.6 mph N/A   Overcast